Вернуться в каталог

STARLINK-36832

АктивенСвязьSSO
NORAD 68805·PAYLOAD·🇺🇸 United States

Запущен Apr 23, 2026 с Vandenberg Space Force Base

Loading…

Ближайшие Пролёты (ближайшие 24 часа)

TLE

СвежийSource: CelesTrak SupGP

Эпоха: Sep 14, 2026, 23:33 UTC

1 68805C 26089D   26257.98173611  .00082926  00000+0  25744-2 0  2577
2 68805  97.2847 103.7664 0001763  93.4228 125.3348 15.33395039    16

Отслеживайте STARLINK-36832 в реальном времени с AllMySat

Download on the App Store